Retour au catalogue

STARLINK-3898

ActifCommunicationsVLEO
NORAD 52458·PAYLOAD·🇺🇸 United States

Lancé May 6, 2022 depuis Cape Canaveral Space Force Station

Loading…

Prochains Passages (prochaines 24 heures)

TLE

FraisSource: CelesTrak SupGP

Époque: Sep 15, 2026, 02:03 UTC

1 52458C 22049H   26258.08590278  .00027960  00000+0  84920-3 0  2580
2 52458  53.1573 294.7599 0001182  91.3021 346.6111 15.33505234    17

Suivez STARLINK-3898 en temps réel avec AllMySat

Download on the App Store